N8YZF Weather Reports


Display with metric or nautical units.
time (UTC)temp
F
wind
direction
speed
MPH
gust
MPH
rain 1hr
in
rain 24hr
in
rain mn
in
humidity
%
barometer
mb
20260905073544 67 144 1.0 4.0 0.00 0.24 0.00 89 1011.4
20260905073043 67 128 1.0 4.0 0.00 0.24 0.00 90 1011.4
20260905072539 67 101 1.0 5.0 0.00 0.24 0.00 89 1011.6
20260905072038 67 104 1.0 4.0 0.00 0.24 0.00 89 1011.6
20260905071542 67 87 0.0 3.0 0.00 0.24 0.00 89 1011.6
20260905071341 67 88 1.0 3.0 0.00 0.24 0.00 89 1011.6
20260905070520 67 355 0.0 3.0 0.00 0.24 0.00 89 1011.6
20260905070017 67 85 1.0 5.0 0.00 0.24 0.00 89 1011.6
20260905065513 67 123 1.0 5.0 0.00 0.24 0.00 89 1011.6
20260905065013 67 129 1.0 4.0 0.00 0.24 0.00 89 1011.6
20260905064508 67 140 0.0 2.0 0.00 0.24 0.00 89 1011.6
20260905064006 67 144 0.0 2.0 0.00 0.24 0.00 89 1011.6
20260905063507 67 144 1.0 4.0 0.00 0.24 0.00 89 1011.6
20260905063007 67 140 1.0 4.0 0.00 0.24 0.00 89 1011.8
20260905062507 67 71 1.0 3.0 0.00 0.24 0.00 89 1011.8
20260905062007 67 62 1.0 3.0 0.00 0.24 0.00 89 1011.8
20260905061508 67 63 1.0 3.0 0.00 0.24 0.00 89 1012.0
20260905061001 67 59 1.0 3.0 0.00 0.24 0.00 89 1012.0
20260905060500 67 59 1.0 4.0 0.00 0.24 0.00 89 1012.0
20260905055959 67 100 1.0 4.0 0.00 0.24 0.00 89 1011.9
20260905055459 67 86 1.0 4.0 0.00 0.24 0.00 89 1011.9
20260905054958 68 46 1.0 5.0 0.00 0.24 0.00 89 1011.9
20260905054453 68 46 1.0 5.0 0.00 0.24 0.00 89 1011.9
20260905053946 68 102 1.0 4.0 0.00 0.24 0.00 89 1011.9
20260905053800 68 59 1.0 5.0 0.00 0.24 0.00 90 1011.9
20260905052935 68 0 1.0 5.0 0.00 0.24 0.00 90 1011.9
20260905052431 68 30 0.0 2.0 0.00 0.24 0.00 90 1012.0
20260905051916 68 5 1.0 4.0 0.00 0.24 0.00 90 1012.0
20260905051412 68 119 2.0 4.0 0.00 0.24 0.00 90 1012.2
20260905050904 68 82 2.0 5.0 0.00 0.24 0.00 90 1012.2
20260905050351 69 107 1.0 5.0 0.00 0.24 0.00 90 1012.2
20260905045848 69 63 0.0 3.0 0.00 0.24 0.00 91 1012.2
20260905045506 69 76 0.0 1.0 0.00 0.24 0.00 90 1012.2
20260905045436 69 76 0.0 0.0 0.00 0.24 0.00 91 1012.2
20260905044306 69 76 0.0 2.0 0.00 0.24 0.00 90 1012.1
20260905043807 69 76 1.0 4.0 0.00 0.24 0.00 90 1012.1
20260905043300 69 64 2.0 4.0 0.00 0.24 0.00 90 1012.1
20260905042802 69 86 2.0 4.0 0.00 0.24 0.00 90 1012.1
20260905042607 69 61 2.0 4.0 0.00 0.24 0.00 90 1012.1
20260905041939 69 102 3.0 6.0 0.00 0.24 0.00 91 1012.3
20260905041905 69 93 2.0 6.0 0.00 0.24 0.00 90 1012.1
20260905040758 69 111 3.0 6.0 0.00 0.24 0.00 91 1012.3
20260905040256 69 125 2.0 6.0 0.00 0.24 0.00 92 1012.3
20260905035757 69 140 2.0 7.0 0.00 0.24 0.24 93 1012.4
20260905035253 69 93 3.0 7.0 0.00 0.24 0.24 93 1012.4
20260905034751 69 72 3.0 7.0 0.00 0.24 0.24 93 1012.4
20260905034247 70 113 4.0 8.0 0.00 0.24 0.24 92 1012.6
20260905034103 70 115 3.0 8.0 0.00 0.24 0.24 92 1012.6
20260905033243 70 112 2.0 7.0 0.00 0.24 0.24 92 1012.6
20260905032742 70 80 1.0 5.0 0.00 0.24 0.24 92 1012.6
20260905032242 70 92 2.0 5.0 0.00 0.24 0.24 92 1012.6
20260905031735 70 148 3.0 8.0 0.00 0.24 0.24 92 1012.6
20260905031210 71 113 3.0 8.0 0.00 0.24 0.24 92 1012.7
20260905030706 71 158 3.0 8.0 0.00 0.24 0.24 92 1012.7
20260905030220 71 141 3.0 8.0 0.00 0.24 0.24 92 1012.7
20260905025708 71 130 3.0 6.0 0.00 0.24 0.24 92 1012.7
20260905025208 71 116 3.0 7.0 0.00 0.24 0.24 92 1012.7
20260905024717 71 88 2.0 7.0 0.00 0.24 0.24 92 1012.7
20260905024206 72 96 2.0 7.0 0.00 0.24 0.24 92 1012.4
20260905023705 72 106 2.0 7.0 0.00 0.24 0.24 92 1012.4
20260905023201 72 73 2.0 7.0 0.00 0.24 0.24 92 1012.4
20260905022701 72 119 2.0 7.0 0.00 0.24 0.24 92 1012.2
20260905022200 72 134 3.0 7.0 0.00 0.24 0.24 92 1012.3
20260905021659 73 127 3.0 6.0 0.00 0.24 0.24 91 1012.3
20260905021201 73 68 1.0 6.0 0.00 0.24 0.24 91 1012.3
20260905020658 73 104 0.0 4.0 0.00 0.24 0.24 91 1012.3
20260905020156 73 103 0.0 4.0 0.00 0.24 0.24 91 1012.3
20260905015652 73 104 0.0 2.0 0.00 0.24 0.24 91 1012.3
20260905015151 73 99 0.0 4.0 0.00 0.24 0.24 90 1012.3
20260905014646 73 88 1.0 4.0 0.00 0.24 0.24 90 1012.3
20260905014145 73 142 1.0 5.0 0.00 0.24 0.24 90 1012.1
20260905013644 74 142 2.0 6.0 0.00 0.24 0.24 90 1012.2
20260905013140 74 179 2.0 6.0 0.00 0.24 0.24 90 1012.2
20260905012809 74 121 1.0 4.0 0.00 0.24 0.24 89 1012.1
20260905012735 74 123 1.0 4.0 0.00 0.24 0.24 89 1012.1
20260905011633 74 124 1.0 5.0 0.00 0.24 0.24 89 1012.1
20260905011429 74 154 2.0 5.0 0.00 0.24 0.24 89 1011.9
20260905010607 74 101 1.0 5.0 0.00 0.24 0.24 89 1011.9
20260905010111 74 119 1.0 5.0 0.00 0.24 0.24 89 1011.9
20260905005606 74 123 0.0 5.0 0.00 0.24 0.24 89 1011.9
20260905005105 75 107 0.0 0.0 0.00 0.24 0.24 89 1011.9
20260905004551 75 92 0.0 0.0 0.00 0.24 0.24 89 1011.9
20260905004046 75 92 0.0 0.0 0.00 0.24 0.24 89 1012.0
20260905003521 75 92 0.0 0.0 0.00 0.24 0.24 89 1012.0
20260905003012 75 92 0.0 0.0 0.00 0.24 0.24 88 1012.1
20260905002506 75 88 0.0 0.0 0.00 0.24 0.24 88 1012.0
20260905002256 75 88 0.0 0.0 0.00 0.24 0.24 88 1012.0
20260905001439 76 88 0.0 0.0 0.00 0.24 0.24 88 1011.9
20260905000933 76 88 0.0 0.0 0.00 0.24 0.24 87 1011.9
20260905000432 76 88 0.0 0.0 0.00 0.24 0.24 87 1011.9
20260905000237 76 88 0.0 0.0 0.00 0.24 0.24 87 1011.9
20260904235417 76 88 0.0 0.0 0.00 0.24 0.24 87 1012.0
20260904234958 77 88 0.0 0.0 0.00 0.24 0.24 86 1011.9
20260904234937 76 88 0.0 0.0 0.00 0.24 0.24 86 1012.0
20260904233908 77 88 0.0 0.0 0.00 0.24 0.24 84 1011.9
20260904233406 77 88 0.0 0.0 0.00 0.24 0.24 84 1011.9
20260904232902 77 88 0.0 0.0 0.00 0.24 0.24 84 1011.9
20260904232359 77 88 0.0 0.0 0.00 0.24 0.24 83 1011.9
20260904231858 77 141 0.0 0.0 0.00 0.24 0.24 83 1011.9
20260904231358 77 141 0.0 0.0 0.00 0.24 0.24 82 1011.8
20260904231202 78 141 0.0 0.0 0.00 0.24 0.24 82 1011.8
20260904230342 78 141 0.0 0.0 0.00 0.24 0.24 82 1011.8
20260904225834 78 141 0.0 0.0 0.00 0.24 0.24 81 1011.6
20260904225330 78 141 0.0 0.0 0.00 0.24 0.24 81 1011.6
20260904225120 78 141 0.0 0.0 0.00 0.24 0.24 80 1011.6
20260904224306 78 141 0.0 0.0 0.00 0.24 0.24 80 1011.3
20260904224144 78 141 0.0 0.0 0.00 0.24 0.24 80 1011.3
20260904223304 78 141 0.0 0.0 0.00 0.24 0.24 78 1011.3
20260904222756 78 141 0.0 0.0 0.00 0.24 0.24 80 1011.2
20260904222251 78 141 0.0 0.0 0.00 0.24 0.24 79 1011.2
20260904222058 78 141 0.0 0.0 0.00 0.24 0.24 78 1011.2
20260904221246 78 141 0.0 0.0 0.00 0.24 0.24 78 1011.1
20260904220747 78 141 0.0 0.0 0.00 0.24 0.24 80 1011.1
20260904220246 78 141 0.0 0.0 0.00 0.24 0.24 78 1011.1
20260904215744 78 141 0.0 0.0 0.00 0.24 0.24 79 1011.1
20260904215600 78 141 0.0 1.0 0.00 0.24 0.24 77 1011.1
20260904214736 78 141 0.0 1.0 0.00 0.24 0.24 78 1011.1
20260904214227 78 141 0.0 2.0 0.00 0.24 0.24 78 1011.1
20260904213723 78 141 0.0 2.0 0.00 0.24 0.24 77 1011.1
20260904213220 78 141 0.0 2.0 0.00 0.24 0.24 78 1011.1
20260904212712 78 141 1.0 2.0 0.00 0.24 0.24 77 1011.3
20260904212209 78 141 1.0 2.0 0.00 0.24 0.24 76 1011.3
20260904211712 78 123 1.0 4.0 0.00 0.24 0.24 77 1011.3
20260904211210 78 123 1.0 4.0 0.00 0.24 0.24 76 1011.6
20260904210706 78 194 0.0 2.0 0.00 0.24 0.24 76 1011.6
20260904210220 78 195 0.0 0.0 0.00 0.24 0.24 77 1011.6
20260904205708 78 195 0.0 0.0 0.00 0.24 0.24 78 1011.6
20260904205201 78 195 0.0 2.0 0.00 0.24 0.24 77 1011.6
20260904204700 78 195 0.0 2.0 0.00 0.24 0.24 78 1011.6
20260904204153 78 203 1.0 3.0 0.00 0.24 0.24 79 1011.8
20260904204027 78 203 1.0 3.0 0.00 0.24 0.24 78 1011.8
20260904203829 78 204 1.0 3.0 0.00 0.24 0.24 78 1011.8
20260904202638 78 208 1.0 3.0 0.00 0.24 0.24 77 1012.0
20260904202139 78 208 1.0 3.0 0.00 0.24 0.24 78 1012.0
20260904201636 78 207 1.0 2.0 0.00 0.24 0.24 77 1012.0
20260904201443 79 207 1.0 3.0 0.00 0.24 0.24 79 1011.9
20260904200641 78 212 1.0 5.0 0.00 0.24 0.24 78 1011.9
20260904200123 79 213 1.0 5.0 0.00 0.24 0.24 76 1011.9
20260904195621 79 190 1.0 5.0 0.00 0.24 0.24 76 1011.7
20260904195115 79 169 2.0 5.0 0.00 0.24 0.24 75 1011.7
20260904194941 79 86 1.0 5.0 0.00 0.24 0.24 74 1011.7
20260904194436 79 212 1.0 4.0 0.00 0.24 0.24 74 1011.8
20260904193615 78 165 1.0 2.0 0.00 0.24 0.24 79 1011.8
20260904193603 79 276 1.0 4.0 0.00 0.24 0.24 75 1011.8
20260904193555 78 166 1.0 4.0 0.00 0.24 0.24 77 1011.8
20260904192323 78 165 0.0 2.0 0.00 0.24 0.24 77 1011.8
20260904191549 78 164 1.0 2.0 0.00 0.24 0.24 77 1011.7
20260904191049 78 206 1.0 5.0 0.00 0.24 0.24 78 1011.9
20260904190547 77 206 1.0 5.0 0.00 0.24 0.24 80 1011.9
20260904190100 77 160 1.0 4.0 0.00 0.24 0.24 81 1011.9
20260904185546 77 160 1.0 6.0 0.00 0.24 0.24 84 1011.7
20260904185043 76 135 2.0 6.0 0.00 0.24 0.24 84 1011.7
20260904184541 76 99 2.0 4.0 0.00 0.24 0.24 84 1011.7
20260904184039 76 175 1.0 4.0 0.00 0.24 0.24 86 1012.0
20260904183536 76 157 0.0 2.0 0.00 0.24 0.24 87 1012.0
20260904183509 76 156 2.0 6.0 0.00 0.24 0.24 86 1011.8
20260904183504 76 157 1.0 6.0 0.00 0.24 0.24 86 1012.0
20260904182017 75 164 3.0 6.0 0.00 0.24 0.24 86 1011.8
20260904181845 75 123 2.0 4.0 0.00 0.24 0.24 87 1011.8
20260904181016 75 132 1.0 4.0 0.00 0.24 0.24 89 1011.7
20260904180516 74 145 2.0 4.0 0.00 0.24 0.24 89 1011.6
20260904180324 74 205 2.0 7.0 0.00 0.24 0.24 89 1011.6
20260904175509 74 184 2.0 7.0 0.00 0.24 0.24 90 1011.6
20260904175011 74 139 2.0 5.0 0.00 0.24 0.24 90 1011.6
20260904174459 74 146 1.0 4.0 0.00 0.24 0.24 91 1011.7
20260904174002 74 140 2.0 6.0 0.00 0.24 0.24 92 1011.7
20260904173450 73 194 2.0 6.0 0.00 0.25 0.24 92 1011.6
20260904173003 73 213 2.0 6.0 0.00 0.25 0.24 92 1011.7
20260904172451 73 93 2.0 6.0 0.00 0.26 0.24 92 1011.7
20260904172002 73 97 2.0 5.0 0.00 0.34 0.24 93 1011.7
20260904171447 73 180 2.0 4.0 0.00 0.37 0.24 94 1012.1
20260904170947 72 124 1.0 4.0 0.00 0.40 0.24 95 1012.1
20260904170459 72 136 1.0 4.0 0.00 0.48 0.24 95 1012.1
20260904165935 72 136 1.0 4.0 0.00 0.52 0.24 95 1012.2
20260904165433 72 136 0.0 4.0 0.00 0.56 0.24 96 1012.2
20260904164919 72 130 0.0 1.0 0.00 0.60 0.24 96 1012.2
20260904164416 72 130 0.0 1.0 0.00 0.73 0.24 97 1012.0
20260904163904 71 130 0.0 2.0 0.00 1.01 0.24 97 1012.0
20260904163714 71 130 1.0 4.0 0.00 1.15 0.24 97 1012.0
20260904162850 71 130 1.0 4.0 0.00 1.23 0.24 97 1012.0
20260904162656 71 103 1.0 6.0 0.00 1.23 0.24 97 1012.0
20260904161844 71 130 1.0 6.0 0.00 1.23 0.24 97 1012.0
20260904161326 71 86 1.0 5.0 0.00 1.23 0.24 97 1012.1
20260904160820 70 32 1.0 5.0 0.00 1.23 0.24 97 1012.1
20260904160333 70 166 1.0 5.0 0.00 1.23 0.24 97 1012.1
20260904155900 70 90 1.0 5.0 0.00 1.24 0.24 97 1012.0
20260904155843 70 79 1.0 5.0 0.00 1.23 0.24 97 1012.0
20260904154806 70 57 0.0 3.0 0.00 1.24 0.24 97 1012.0
20260904154307 70 35 0.0 3.0 0.00 1.24 0.24 97 1011.7
20260904154022 70 71 0.0 0.0 0.00 1.24 0.24 97 1011.7
20260904153259 70 67 0.0 2.0 0.00 1.24 0.24 97 1011.7
20260904152752 70 61 1.0 4.0 0.00 1.24 0.24 97 1011.9
20260904152242 70 87 0.0 4.0 0.01 1.24 0.24 98 1011.9
20260904152146 70 134 0.0 0.0 0.01 1.24 0.24 98 1011.6
20260904152133 70 134 0.0 0.0 0.01 1.24 0.24 98 1011.9
20260904150712 70 134 0.0 0.0 0.01 1.24 0.24 98 1011.6
20260904150203 69 134 0.0 1.0 0.01 1.24 0.24 98 1011.6
20260904145704 69 134 1.0 5.0 0.01 1.24 0.24 98 1011.1
20260904145158 69 136 2.0 6.0 0.01 1.24 0.24 98 1011.1
20260904144646 69 112 2.0 6.0 0.01 1.24 0.24 97 1011.1
20260904144142 69 139 1.0 4.0 0.01 1.24 0.24 97 1011.9
20260904144002 69 181 1.0 5.0 0.01 1.24 0.24 97 1011.9
20260904143136 69 111 1.0 5.0 0.01 1.24 0.24 97 1011.9
20260904142629 69 306 0.0 2.0 0.00 1.23 0.23 97 1012.5
20260904142128 69 328 0.0 1.0 0.00 1.23 0.23 97 1012.5
20260904141608 69 328 0.0 0.0 0.00 1.23 0.23 97 1012.5
20260904141122 69 328 0.0 0.0 0.00 1.23 0.23 97 1012.2
20260904140554 69 328 0.0 0.0 0.00 1.23 0.23 98 1012.2
20260904140108 69 328 0.0 0.0 0.00 1.23 0.23 98 1012.2
20260904135547 69 328 0.0 0.0 0.00 1.23 0.23 98 1012.5
20260904135341 69 328 0.0 0.0 0.00 1.23 0.23 98 1012.5
20260904134528 69 328 0.0 0.0 0.00 1.23 0.23 98 1012.5
20260904134022 68 328 0.0 1.0 0.00 1.23 0.23 98 1011.6
20260904133516 68 328 0.0 1.0 0.01 1.23 0.23 97 1011.6
20260904133006 68 328 0.0 2.0 0.01 1.23 0.23 97 1011.3
20260904132504 68 327 0.0 4.0 0.01 1.23 0.23 97 1011.3
20260904132004 68 117 0.0 4.0 0.02 1.23 0.23 97 1011.3
20260904131509 68 225 1.0 8.0 0.03 1.23 0.23 97 1011.0
20260904130950 68 79 2.0 8.0 0.03 1.23 0.23 97 1011.0
20260904130823 68 125 2.0 6.0 0.04 1.23 0.23 97 1011.0
20260904125947 68 128 2.0 6.0 0.05 1.23 0.23 97 1011.5
20260904125432 68 56 1.0 6.0 0.07 1.23 0.23 97 1011.5
20260904124920 68 335 2.0 6.0 0.07 1.23 0.23 97 1011.5
20260904124422 68 90 2.0 6.0 0.08 1.23 0.23 97 1012.0
20260904123920 68 107 1.0 4.0 0.09 1.23 0.23 98 1012.0
20260904123414 68 94 1.0 5.0 0.10 1.22 0.22 98 1012.0
20260904122905 68 36 1.0 5.0 0.10 1.22 0.22 97 1011.0
20260904122358 68 28 1.0 5.0 0.12 1.25 0.22 97 1011.0
20260904122213 68 82 2.0 5.0 0.12 1.24 0.21 97 1011.0
20260904121351 68 167 3.0 5.0 0.12 1.23 0.20 97 1011.6
20260904120850 68 119 2.0 5.0 0.11 1.22 0.20 97 1011.6
20260904120343 68 106 2.0 4.0 0.11 1.22 0.19 97 1011.6
20260904115838 68 153 1.0 4.0 0.11 1.21 0.18 97 1012.1
20260904115323 68 158 1.0 4.0 0.10 1.19 0.16 97 1012.1
20260904114814 68 166 1.0 4.0 0.10 1.18 0.16 97 1012.1
20260904114308 68 171 0.0 4.0 0.10 1.17 0.15 97 1013.1
20260904113808 68 130 0.0 0.0 0.11 1.17 0.14 97 1013.1
20260904113309 68 130 0.0 0.0 0.10 1.15 0.12 97 1013.1
20260904113105 68 130 0.0 0.0 0.09 1.14 0.11 97 1013.1
20260904112609 68 130 0.0 0.0 0.09 1.13 0.10 97 1013.1
20260904112056 68 130 0.0 1.0 0.08 1.12 0.09 97 1013.1
20260904111253 68 130 1.0 2.0 0.08 1.11 0.08 97 1012.0
20260904110748 68 130 1.0 2.0 0.08 1.11 0.08 97 1012.0
20260904110246 68 178 1.0 2.0 0.08 1.11 0.08 97 1012.0
20260904105743 68 178 1.0 2.0 0.07 1.10 0.07 97 1011.4
20260904105551 68 178 0.0 0.0 0.06 1.09 0.06 97 1011.4
20260904104729 68 178 0.0 0.0 0.05 1.08 0.05 97 1011.4
20260904104223 68 178 0.0 0.0 0.04 1.07 0.04 97 1011.6
20260904103714 68 178 0.0 0.0 0.03 1.06 0.03 97 1011.6
20260904103210 68 178 0.0 0.0 0.02 1.05 0.02 97 1011.6
20260904102713 68 178 0.0 0.0 0.02 1.05 0.02 97 1011.6
20260904102159 67 178 0.0 0.0 0.01 1.04 0.01 97 1011.5
20260904101659 67 178 0.0 0.0 0.01 1.04 0.01 97 1011.5
20260904101155 67 178 0.0 0.0 0.00 1.03 0.00 97 1011.1
20260904100646 67 178 0.0 0.0 0.00 1.03 0.00 97 1011.0
20260904100445 67 178 0.0 0.0 0.00 1.03 0.00 97 1011.0
20260904095635 67 178 0.0 0.0 0.00 1.03 0.00 97 1011.3
20260904095432 67 178 0.0 0.0 0.00 1.03 0.00 97 1011.3
20260904094621 67 178 0.0 0.0 0.00 1.03 0.00 97 1011.3
20260904094117 67 178 0.0 0.0 0.00 1.03 0.00 97 1010.9
20260904093610 67 178 0.0 0.0 0.00 1.03 0.00 97 1010.9
20260904093356 67 178 0.0 0.0 0.00 1.03 0.00 97 1010.9
20260904092554 67 178 0.0 0.0 0.00 1.03 0.00 97 1011.3
20260904092113 67 178 0.0 0.0 0.00 1.03 0.00 97 1010.9
20260904092058 67 178 0.0 0.0 0.00 1.03 0.00 97 1011.3
20260904091107 67 178 0.0 1.0 0.00 1.03 0.00 97 1010.8
20260904091046 67 178 0.0 1.0 0.00 1.03 0.00 97 1010.9
20260904085948 67 178 0.0 0.0 0.00 1.03 0.00 97 1010.5
20260904085438 67 178 0.0 0.0 0.00 1.03 0.00 97 1010.5
20260904084922 67 178 0.0 0.0 0.00 1.03 0.00 97 1010.5
20260904084724 67 178 0.0 0.0 0.00 1.03 0.00 97 1010.6
20260904083855 67 178 0.0 0.0 0.00 1.03 0.00 97 1010.6
20260904083657 67 178 0.0 0.0 0.00 1.03 0.00 97 1010.6
20260904082848 67 178 0.0 0.0 0.00 1.03 0.00 97 1011.0
20260904082344 67 178 0.0 1.0 0.00 1.03 0.00 97 1011.0
20260904082137 67 178 0.0 2.0 0.00 1.03 0.00 97 1011.0
20260904081320 67 178 0.0 2.0 0.00 1.03 0.00 97 1011.0
20260904080817 67 150 0.0 0.0 0.00 1.03 0.00 97 1011.0
20260904080306 67 148 0.0 1.0 0.00 1.03 0.00 97 1011.0
20260904075808 67 148 0.0 1.0 0.00 1.03 0.00 97 1010.9
20260904075306 67 148 0.0 0.0 0.00 1.03 0.00 97 1010.9
20260904074756 67 148 0.0 0.0 0.00 1.03 0.00 97 1010.9
20260904074257 67 148 0.0 0.0 0.00 1.03 0.00 97 1011.4
20260904073750 67 148 0.0 0.0 0.00 1.03 0.00 97 1011.4